Grayling, MI

5:01 PM EDT on August 22, 2017 (GMT -0400)
Grayling

Weather History for KGOV - April, 2013

Change the Weather History Date:

Friday, April 5, 2013

  Actual Average (KHTL) Record (KHTL)
Temperature  
Mean Temperature 30 °F -  
Max Temperature 38 °F 45 °F 81 °F (1921)
Min Temperature 23 °F 25 °F 3 °F (1982)
Degree Days  
Heating Degree Days 34    
Moisture  
Dew Point 18 °F    
Average Humidity 59    
Maximum Humidity 88    
Minimum Humidity 31    
Precipitation  
Precipitation 0.00 in - - ()
Sea Level Pressure  
Sea Level Pressure 30.12 in    
Wind  
Wind Speed 8 mph (NW)    
Max Wind Speed 14 mph    
Max Gust Speed 21 mph    
Visibility 10 miles    
Events      
Averages and records for this station are not official NWS values.
T = Trace of Precipitation, MM = Missing Value Source: NWS Daily Summary

Daily Weather History Graph

Daily Weather History Graph

Search for Another Location

Airport or City:

Trip Planner

Search our weather history database for the weather conditions in past years. The results will help you decide how hot, cold, wet, or windy it might be!

Date:

Astronomy

Apr. 05, 2013 Rise Set
Actual Time 7:12 AM EDT 8:11 PM EDT
Civil Twilight 6:42 AM EDT 8:41 PM EDT
Nautical Twilight 6:06 AM EDT 9:17 PM EDT
Astronomical Twilight 5:29 AM EDT 9:54 PM EDT
Moon 4:30 AM EDT (4/5) 3:24 PM EDT (4/5)
Length of Visible Light 13h 59m
Length of Day
12h 59m
Waning Crescent, 24% of the Moon is Illuminated
Apr 5
Waning Crescent
Apr 10
New
Apr 18
First Quarter
Apr 25
Full
May 2
Last Quarter

Hourly Weather History & Observations

Time (EDT) Temp. Windchill Dew Point Humidity Pressure Visibility Wind Dir Wind Speed Gust Speed Precip Events Conditions
12:15 AM 34.5 °F 26.7 °F 31.3 °F 88% 29.99 in 10.0 mi NNW 10.4 mph - N/A   Overcast
12:34 AM 33.3 °F 27.1 °F 28.8 °F 84% 29.99 in 10.0 mi NNW 6.9 mph - N/A   Scattered Clouds
12:55 AM 33.3 °F 27.1 °F 28.6 °F 83% 29.99 in 10.0 mi NNW 6.9 mph - N/A   Clear
1:15 AM 31.3 °F 23.9 °F 26.6 °F 83% 29.99 in 10.0 mi NNW 8.1 mph - N/A   Scattered Clouds
1:34 AM 31.1 °F 24.5 °F 26.2 °F 82% 29.99 in 10.0 mi NW 6.9 mph - N/A   Clear
1:55 AM 31.1 °F 24.5 °F 24.6 °F 77% 29.99 in 10.0 mi NNW 6.9 mph - N/A   Clear
2:14 AM 31.1 °F 23.7 °F 23.2 °F 72% 30.00 in 10.0 mi NW 8.1 mph - N/A   Clear
2:35 AM 31.1 °F 25.4 °F 23.2 °F 72% 30.00 in 10.0 mi NW 5.8 mph - N/A   Clear
2:55 AM 29.3 °F 24.3 °F 21.7 °F 73% 30.00 in 10.0 mi WNW 4.6 mph - N/A   Clear
3:14 AM 28.8 °F 21.7 °F 21.7 °F 75% 30.01 in 10.0 mi NW 6.9 mph - N/A   Clear
3:35 AM 28.4 °F 21.2 °F 21.9 °F 77% 30.01 in 10.0 mi NW 6.9 mph - N/A   Clear
3:55 AM 28.4 °F 22.2 °F 22.3 °F 78% 30.01 in 10.0 mi NW 5.8 mph - N/A   Clear
4:14 AM 28.4 °F 22.2 °F 23.0 °F 80% 30.02 in 10.0 mi WNW 5.8 mph - N/A   Clear
4:35 AM 28.4 °F 20.4 °F 22.6 °F 79% 30.02 in 10.0 mi WNW 8.1 mph - N/A   Clear
4:55 AM 28.4 °F 20.4 °F 21.9 °F 77% 30.03 in 10.0 mi WNW 8.1 mph - N/A   Clear
5:14 AM 28.4 °F 21.2 °F 22.1 °F 77% 30.04 in 10.0 mi NW 6.9 mph - N/A   Clear
5:35 AM 28.4 °F 23.3 °F 21.9 °F 77% 30.04 in 10.0 mi WNW 4.6 mph - N/A   Clear
5:55 AM 28.4 °F 21.2 °F 22.3 °F 78% 30.05 in 10.0 mi WNW 6.9 mph - N/A   Clear
6:14 AM 28.4 °F 21.2 °F 22.6 °F 79% 30.06 in 10.0 mi WNW 6.9 mph - N/A   Clear
6:35 AM 28.4 °F 21.2 °F 22.6 °F 79% 30.07 in 10.0 mi WNW 6.9 mph - N/A   Clear
6:55 AM 26.1 °F 18.4 °F 20.8 °F 81% 30.08 in 10.0 mi WNW 6.9 mph - N/A   Clear
7:15 AM 26.1 °F 17.6 °F 20.8 °F 81% 30.09 in 10.0 mi NW 8.1 mph - N/A   Clear
7:35 AM 27.5 °F 21.1 °F 22.1 °F 80% 30.10 in 10.0 mi NW 5.8 mph - N/A   Clear
7:54 AM 28.4 °F 22.2 °F 22.8 °F 80% 30.11 in 10.0 mi NW 5.8 mph - N/A   Clear
8:15 AM 28.6 °F 20.7 °F 21.2 °F 74% 30.12 in 10.0 mi NW 8.1 mph - N/A   Clear
8:35 AM 29.3 °F 20.2 °F 20.7 °F 70% 30.13 in 10.0 mi North 10.4 mph - N/A   Clear
8:54 AM 29.8 °F 19.3 °F 19.2 °F 65% 30.13 in 10.0 mi NNW 13.8 mph 17.3 mph N/A   Clear
9:15 AM 30.2 °F 19.8 °F 18.1 °F 61% 30.14 in 10.0 mi North 13.8 mph 19.6 mph N/A   Scattered Clouds
9:35 AM 31.3 °F 21.1 °F 18.3 °F 59% 30.14 in 10.0 mi NNW 13.8 mph 20.7 mph N/A   Scattered Clouds
9:55 AM 31.6 °F 21.6 °F 18.7 °F 59% 30.15 in 10.0 mi NNW 13.8 mph - N/A   Scattered Clouds
10:15 AM 32.9 °F 23.2 °F 20.1 °F 59% 30.15 in 10.0 mi North 13.8 mph 17.3 mph N/A   Scattered Clouds
10:35 AM 33.3 °F 23.7 °F 19.9 °F 58% 30.15 in 10.0 mi North 13.8 mph - N/A   Scattered Clouds
10:55 AM 33.3 °F 24.6 °F 17.2 °F 52% 30.16 in 10.0 mi NNW 11.5 mph 18.4 mph N/A   Mostly Cloudy
11:15 AM 33.3 °F 24.6 °F 17.2 °F 52% 30.17 in 10.0 mi North 11.5 mph 16.1 mph N/A   Scattered Clouds
11:35 AM 33.3 °F 24.1 °F 17.6 °F 53% 30.17 in 10.0 mi NW 12.7 mph 17.3 mph N/A   Mostly Cloudy
11:55 AM 35.1 °F 27.4 °F 17.6 °F 49% 30.18 in 10.0 mi WNW 10.4 mph - N/A   Mostly Cloudy
12:15 PM 33.3 °F 27.9 °F 16.7 °F 51% 30.18 in 10.0 mi WNW 5.8 mph - N/A   Scattered Clouds
12:34 PM 34.5 °F 27.3 °F 15.6 °F 46% 30.17 in 10.0 mi NW 9.2 mph 17.3 mph N/A   Scattered Clouds
12:55 PM 35.6 °F 27.1 °F 15.3 °F 43% 30.17 in 10.0 mi NW 12.7 mph 18.4 mph N/A   Scattered Clouds
1:15 PM 36.0 °F 28.5 °F 14.5 °F 42% 30.17 in 10.0 mi NNW 10.4 mph - N/A   Clear
1:34 PM 35.8 °F 30.1 °F 14.5 °F 42% 30.17 in 10.0 mi North 6.9 mph 17.3 mph N/A   Clear
1:55 PM 36.1 °F 29.3 °F 12.7 °F 38% 30.16 in 10.0 mi NW 9.2 mph 17.3 mph N/A   Clear
2:15 PM 36.0 °F 32.1 °F 13.3 °F 39% 30.16 in 10.0 mi WNW 4.6 mph 16.1 mph N/A   Clear
2:34 PM 38.3 °F 33.2 °F 13.6 °F 37% 30.16 in 10.0 mi NNW 6.9 mph 12.7 mph N/A   Clear
2:55 PM 38.3 °F 30.9 °F 12.6 °F 35% 30.16 in 10.0 mi NNW 11.5 mph 19.6 mph N/A   Clear
3:15 PM 37.4 °F 29.3 °F 11.8 °F 35% 30.15 in 10.0 mi NW 12.7 mph 20.7 mph N/A   Clear
3:34 PM 37.2 °F 29.6 °F 11.7 °F 35% 30.15 in 10.0 mi NW 11.5 mph 20.7 mph N/A   Clear
3:55 PM 38.3 °F 31.9 °F 13.1 °F 36% 30.15 in 10.0 mi NNW 9.2 mph 17.3 mph N/A   Clear
4:15 PM 37.8 °F 30.7 °F 11.1 °F 33% 30.14 in 10.0 mi WNW 10.4 mph 17.3 mph N/A   Clear
4:35 PM 37.2 °F 30.6 °F 9.1 °F 31% 30.15 in 10.0 mi NW 9.2 mph 16.1 mph N/A   Clear
4:55 PM 38.3 °F 31.4 °F 10.4 °F 32% 30.15 in 10.0 mi NW 10.4 mph - N/A   Clear
5:14 PM 36.3 °F 29.5 °F 9.9 °F 33% 30.16 in 10.0 mi NNW 9.2 mph - N/A   Clear
5:35 PM 38.1 °F 30.7 °F 11.3 °F 33% 30.16 in 10.0 mi WNW 11.5 mph 16.1 mph N/A   Clear
5:55 PM 35.8 °F 28.3 °F 8.6 °F 32% 30.16 in 10.0 mi NNW 10.4 mph 18.4 mph N/A   Clear
6:14 PM 35.8 °F 29.4 °F 9.1 °F 33% 30.17 in 10.0 mi NNW 8.1 mph - N/A   Clear
6:35 PM 35.6 °F 27.5 °F 10.4 °F 35% 30.17 in 10.0 mi NNW 11.5 mph - N/A   Clear
6:55 PM 35.2 °F 27.6 °F 11.7 °F 38% 30.17 in 10.0 mi NNW 10.4 mph - N/A   Clear
7:14 PM 33.3 °F 25.7 °F 11.5 °F 41% 30.18 in 10.0 mi NNW 9.2 mph - N/A   Clear
7:35 PM 33.3 °F 27.1 °F 13.5 °F 44% 30.18 in 10.0 mi NNW 6.9 mph - N/A   Clear
7:55 PM 31.1 °F 25.4 °F 12.2 °F 46% 30.18 in 10.0 mi NNW 5.8 mph - N/A   Clear
8:14 PM 30.0 °F - 13.6 °F 51% 30.18 in 10.0 mi Calm Calm - N/A   Clear
8:35 PM 28.4 °F 24.6 °F 13.3 °F 53% 30.18 in 10.0 mi NNW 3.5 mph - N/A   Clear
8:55 PM 28.4 °F 23.3 °F 13.6 °F 54% 30.19 in 10.0 mi NNW 4.6 mph - N/A   Clear
9:15 PM 28.4 °F 23.3 °F 13.8 °F 54% 30.19 in 10.0 mi NW 4.6 mph - N/A   Clear
9:35 PM 28.4 °F - 14.4 °F 56% 30.20 in 10.0 mi Calm Calm - N/A   Clear
9:54 PM 28.4 °F 24.6 °F 13.8 °F 54% 30.21 in 10.0 mi West 3.5 mph - N/A   Clear
10:15 PM 28.4 °F - 15.8 °F 59% 30.21 in 10.0 mi Calm Calm - N/A   Clear
10:35 PM 28.4 °F - 17.1 °F 63% 30.21 in 10.0 mi Calm Calm - N/A   Clear
10:54 PM 26.1 °F - 16.2 °F 66% 30.20 in 10.0 mi Calm Calm - N/A   Clear
11:15 PM 23.5 °F - 15.6 °F 72% 30.20 in 10.0 mi Calm Calm - N/A   Clear
11:35 PM 23.7 °F - 16.2 °F 73% 30.19 in 10.0 mi Calm Calm - N/A   Clear
11:55 PM 23.5 °F - 17.6 °F 78% 30.19 in 10.0 mi Calm Calm - N/A   Clear